Showing default

YAOGAN-36 04A, 54746

Orbit data source: Space-Track

YAOGAN-36 04A, 54746 is a payload satellite owned by PLA GAD (CN) in LEO that was launched on Wed, 14 Dec 2022 UTC via a CHANG ZHENG 2D launch vehicle from the Xichang Space Center, China (XSC). Payload-class satellites include a variety of spacecraft equipped with specific instruments for various scientific and technological missions. These include communications satellites like Starlink; space stations such as the ISS; scientific satellites like the Hubble; Earth observation satellites from companies like Planet Labs, Umbra, and HawkEye 360; GPS; miniature CubeSats for education and research; and military/defense satellites.

Loading next visibility...
Identifier
54746, 2022-171A
Orbit
LEO
Country
Flag of CNCN / PRC
Related business
Manufacturer
DFH
Mission
Operational Defense Sigint
Bus & Motor
Unknown
Mass
~300 kg wet, ~300 kg dry
Launch date (UTC)
2022-12-14 (3 years ago)
Launch vehicle
CHANG ZHENG 2D
Launch site
Xichang Space Center, China (XSC)
Object type
Payload
Rocket body
Debris
Shape & HBR
Box + 2 Pan, 2.5 m
Radar Cross Section
11.063 m², Large (>1 m²)

Expand to show TLE details & history
Last TLE update: 7 hours ago

TLE from 7 hours ago
0 YAOGAN-36 04A
1 54746U 22171A   25346.99898602  .00011802  00000-0  56511-3 0  9993
2 54746  34.9911 306.5188 0005502  54.7249 305.3978 15.18162998166782
Epoch: 2025-12-12T23:58Z
TLE epoch observation values (Epoch: 2025-12-12T23:58:32.392Z)
Latitude
-0.00002°
Longitude
-135.04875°
Altitude
508.107 km
Speed
7.613 km/s
True Right ascension
20h 26m 04s
True Declination
0° 00' 00"
Sunlit
Object was in daylight at epoch
Visualization orbit readout
Latitude
Unknown
Longitude
Unknown
Altitude
Unknown
Speed
Unknown
Apparent Right ascension
Unknown
Apparent Declination
Unknown
Sunlit
N/A
Visualization observer readout
Local Sidereal Time
05:22:58
Azimuth
Unknown
Elevation
Unknown
Doppler factor
Unknown
Orbital elements
Apogee altitude
518.43 km
Perigee altitude
510.845 km
Semi-major axis
6,892.774 km
Eccentricity
0.00055
Inclination
34.9911°
RAAN
306.5188°
Arg. of periapsis
54.7249°
True anomaly
305.34639°
Mean anomaly
305.3978°
Eccentric anomaly
305.37209°
Mean motion
3.79273 °/min
Orbital period
94.92 mins
BSTAR
0.00056511
Loading maneuver chart data...
Computing Atmospheric mass density...
Loading historical data...
Loading historical data...
Loading historical data...
Loading historical data...
Loading historical data...
Loading historical data...
Loading historical data...
Other satellites on launch #171 in the year 2022 (2022-12-14 UTC)

Documentation

Showing up to 5 results
|